User: anonymous   Login
Location: Caltech
(34.1382°N, 118.1253°W)
Time: 23:51:29
(UTC-07:00)
Language:

Oscar 10/S400 - Orbit

View from above orbital plane
View from above orbital plane
View from above satellite
View from above satellite

Ground track
Ground track

The orbit data is extracted from the following two-line orbital elements,

1 14129U 83058B   18114.74891875 -.00000124 +00000-0 +00000-0 0  9993
2 14129 027.0490 344.5449 6027292 028.5483 004.5713 02.05870767234249
Epoch (UTC): 24 April 2018 17:58:26
Eccentricity: 0.6027292
inclination: 27.0490°
perigee height: 3991 km
apogee height: 35456 km
right ascension of ascending node: 344.5449°
argument of perigee: 28.5483°
revolutions per day: 2.05870767
mean anomaly at epoch: 4.5713°
orbit number at epoch: 23424

The dashed part of the orbit path shows where the satellite is in the earth's shadow,  

DLR